• MPC Preparation (Info)

  • MPEC 2017-F86 : 2017 FK63

    The following Minor Planet Electronic Circular may be linked-to from your own Web pages, but must not otherwise be redistributed electronically.

    A form allowing access to any MPEC is at the bottom of this page.


    Read MPEC 2017-F85 Read MPEC 2017-F87


    M.P.E.C. 2017-F86                                Issued 2017 Mar. 23, 16:43 UT
    
         The Minor Planet Electronic Circulars contain information on unusual
             minor planets and routine data on comets.  They are published
        on behalf of Division F of the International Astronomical Union by the
              Minor Planet Center, Smithsonian Astrophysical Observatory,
                              Cambridge, MA 02138, U.S.A.
    
                 Prepared using the Tamkin Foundation Computer Network
    
                                  MPC@CFA.HARVARD.EDU
                URL https://www.minorplanetcenter.net/    ISSN 1523-6714
    
                                       2017 FK63
    
    Observations:
         K17F63K* C2017 03 21.18111 09 04 08.35 -00 13 08.7          21.1 VqEF086G96
         K17F63K  C2017 03 21.18536 09 04 09.20 -00 12 45.1          21.2 VqEF086G96
         K17F63K  C2017 03 21.19535 09 04 11.38 -00 11 49.2          20.8 VqEF086G96
         K17F63K  C2017 03 21.22122 09 04 16.98 -00 09 23.7          21.3 VqEF086G96
         K17F63K  C2017 03 21.22402 09 04 17.54 -00 09 07.6          20.3 VqEF086G96
         K17F63K  C2017 03 21.22626 09 04 18.03 -00 08 55.4          20.4 VqEF086G96
         K17F63K  C2017 03 21.22798 09 04 18.42 -00 08 45.1                qEF086G96
         K17F63K  C2017 03 21.34983 09 04 45.77 +00 02 41.0          21.0 VqEF086G96
         K17F63K  C2017 03 21.35273 09 04 46.51 +00 02 57.8                qEF086G96
         K17F63K  C2017 03 21.35503 09 04 47.07 +00 03 10.6          20.6 VqEF086G96
         K17F63K  C2017 03 21.35800 09 04 47.78 +00 03 28.2          21.0 VqEF086G96
         K17F63K KC2017 03 21.45956 09 05 18.53 +00 15 36.7          20   RtEF086474
         K17F63K KC2017 03 21.46250 09 05 19.15 +00 15 54.1          20   RtEF086474
         K17F63K KC2017 03 21.46544 09 05 19.86 +00 16 09.4          20   RtEF086474
         K17F63K KC2017 03 21.46838 09 05 20.52 +00 16 26.1                tEF086474
         K17F63K  C2017 03 22.12349709 08 19.99 +01 16 15.6          20.2 GUEF086H01
         K17F63K  C2017 03 22.12696109 08 20.77 +01 16 35.4          20.1 GUEF086H01
         K17F63K  C2017 03 22.13847209 08 23.42 +01 17 42.2          20.3 GUEF086H01
         K17F63K KC2017 03 22.14242809 08 22.02 +01 17 54.8          21.1 VuEF086H21
         K17F63K  C2017 03 22.14389009 08 24.64 +01 18 13.1          20.6 GUEF086H01
         K17F63K KC2017 03 22.14874009 08 23.47 +01 18 31.4          20.6 VuEF086H21
         K17F63K  C2017 03 22.15526 09 08 27.70 +01 19 21.5          21.0 VqEF086I52
         K17F63K KC2017 03 22.15548109 08 25.04 +01 19 10.0          21.0 VuEF086H21
         K17F63K  C2017 03 22.15637 09 08 27.94 +01 19 27.8          20.8 VqEF086I52
         K17F63K  C2017 03 22.17050 09 08 31.19 +01 20 51.8          20.3 RoEF086926
         K17F63K  C2017 03 22.17443 09 08 32.09 +01 21 14.7          20.3 RoEF086926
         K17F63K  C2017 03 22.17965 09 08 33.25 +01 21 44.4          20.0 RoEF086926
         K17F63K  C2017 03 23.21667 09 13 20.24 +03 02 47.5          20.0 RoEF086926
         K17F63K  C2017 03 23.21994 09 13 21.05 +03 03 07.2          20.0 RoEF086926
         K17F63K  C2017 03 23.22321 09 13 21.84 +03 03 26.3          20.2 RoEF086926
    
    Observer details:
    474 Mount John Observatory, Lake Tekapo.  Observers A. C. Gilmore,
        P. M. Kilmartin.  Measurer P. M. Kilmartin.  1.0-m f/7.7 reflector + CCD.
    926 Tenagra II Observatory.  Observers M. Schwartz, P. R. Holvorcem.  Measurer
        M. Schwartz.  0.81-m f/7 Ritchey-Chretien + CCD.
    G96 Mt. Lemmon Survey.  Observer G. J. Leonard.  Measurers E. J. Christensen,
        D. C. Fuls, A. R. Gibbs, A. D. Grauer, J. A. Johnson, R. A. Kowalski,
        S. M. Larson, G. J. Leonard, R. G. Matheny, R. L. Seaman, F. C. Shelly.
        1.5-m reflector + 10K CCD.
    H01 Magdalena Ridge Observatory, Socorro.  Observers W. H. Ryan, E. V. Ryan.
        Measurer W. H. Ryan.  2.4-m f/8.9 reflector + CCD.
    H21 Astronomical Research Observatory, Westfield.  Observer R. Holmes.
        Measurers S. Foglia, L. Buzzi, T. Linder, R. Holmes.  0.61-m f/4.5
        astrograph + CCD, 0.76-m f/3.0 astrograph + CCD.
    I52 Steward Observatory, Mt. Lemmon Station.  Observer A. R. Gibbs.  Measurers
        E. J. Christensen, D. C. Fuls, A. R. Gibbs, A. D. Grauer, J. A. Johnson,
        R. A. Kowalski, S. M. Larson, G. J. Leonard, R. G. Matheny, R. L. Seaman,
        F. C. Shelly.  1.0-m reflector + CCD.
    
    Orbital elements:
    2017 FK63                                                Earth MOID = 0.0485 AU
    Epoch 2017 Feb. 16.0 TT = JDT 2457800.5                 MPC
    M 332.06623              (2000.0)            P               Q
    n   0.69830129     Peri.  358.70922     -0.99653932     +0.08192703
    a   1.2582709      Node   186.04422     -0.07501827     -0.95922776
    e   0.1683934      Incl.    7.66693     -0.03580004     -0.27049966
    P   1.41           H   24.8           G   0.15           U   6
    Residuals in seconds of arc
    170321 G96  1.0+  0.4+    170321 G96  0.7+  0.3+    170322 H21  0.3+  0.0
    170321 G96  0.0   0.1+    170321 474  0.4-  0.1-    170322 I52  0.4+  0.3-
    170321 G96  0.6+  0.2-    170321 474  1.1-  0.7+    170322 H21  0.5+  0.3-
    170321 G96  1.1+  0.3-    170321 474  0.4-  0.7-    170322 I52  0.2+  0.4-
    170321 G96  0.4+  0.1+    170321 474  0.6-  0.6-    170322 926  0.5+  0.1+
    170321 G96  0.5+  0.3-    170322 H01  0.5+  0.0     170322 926  0.7+  0.3+
    170321 G96  0.8+  0.3+    170322 H01  0.3+  0.2-    170322 926  0.3+  0.1-
    170321 G96  0.2-  0.8-    170322 H01  0.5+  0.2+    170323 926  0.1-  0.3-
    170321 G96  0.5+  0.4-    170322 H21  0.4+  0.2-    170323 926  0.3+  0.1+
    170321 G96  0.7+  0.6-    170322 H01  0.3+  0.2-    170323 926  0.4+  0.1-
    
    Ephemeris:
    2017 FK63                a,e,i = 1.26, 0.17, 8                   q = 1.0464
    Date    TT    R. A. (2000) Decl.     Delta      r     Elong.  Phase     V
    2017 02 21    08 09 35.6 -25 22 28   0.1194  1.0732   132.4    42.9    22.0
    ...
    2017 03 08    08 23 59.0 -16 23 37   0.08921 1.0554   132.9    43.5    21.3
    ...
    2017 03 16    08 44 31.9 -07 38 17   0.07636 1.0496   134.5    42.5    21.0
    ...
    2017 03 22    09 07 43.9 +01 05 29   0.06940 1.0472   135.7    41.7    20.7
    2017 03 23    09 12 19.7 +02 42 26   0.06854 1.0469   135.8    41.6    20.7
    2017 03 24    09 17 08.6 +04 21 33   0.06778 1.0467   135.9    41.5    20.7
    ...
    2017 03 30    09 50 37.9 +14 39 59   0.06545 1.0464   135.6    41.9    20.6
    ...
    2017 04 07    10 45 59.0 +27 11 11   0.06867 1.0486   132.6    44.7    20.8
    ...
    2017 04 22    12 34 19.4 +38 45 39   0.09048 1.0602   125.5    50.6    21.6
    
    A. U. Tomatic                (C) Copyright 2017 MPC           M.P.E.C. 2017-F86
    

    Read MPEC 2017-F85 Read MPEC 2017-F87


    MPEC number:

    Enter an MPEC number in one of the following forms:

    • 1997-B01 (the full form)
    • J97B01 (the packed version of the full form)
    • B01 (the abbreviated form)